• Processing (Info)

  • MPEC 2022-U29 : 2019 WF24

    The following Minor Planet Electronic Circular may be linked-to from your own Web pages, but must not otherwise be redistributed electronically.

    A form allowing access to any MPEC is at the bottom of this page.


    Read MPEC 2022-U28 Read MPEC 2022-U30


    M.P.E.C. 2022-U29                              Issued 2022 October 18, 13:21 UT
    
         The Minor Planet Electronic Circulars contain information on unusual
             minor planets and routine data on comets.  They are published
        on behalf of Division F of the International Astronomical Union by the
              Minor Planet Center, Smithsonian Astrophysical Observatory,
                              Cambridge, MA 02138, U.S.A.
    
                 Prepared using the Tamkin Foundation Computer Network
    
                                  MPC@CFA.HARVARD.EDU
                URL https://www.minorplanetcenter.net/    ISSN 1523-6714
    
                                    2019 WF24                                
    
    
    Observations:
         K19W24F ZC2019 11 24.25624904 16 12.46 +21 13 51.1          21.0 gWEU029I41
         K19W24F ZC2019 11 24.25670004 16 12.42 +21 13 55.7          20.6 gWEU029I41
         K19W24F ZC2019 11 24.26890604 16 11.05 +21 15 46.2          20.3 gWEU029I41
         K19W24F ZC2019 11 24.26935904 16 10.97 +21 15 49.6          20.6 gWEU029I41
         K19W24F ZC2019 11 24.26981404 16 10.94 +21 15 54.4                WEU029I41
         K19W24F ZC2019 11 24.27593604 16 10.24 +21 16 48.7                WEU029I41
         K19W24F ZC2019 11 24.31716904 16 05.39 +21 22 48.2          20.2 rWEU029I41
         K19W24F ZC2019 11 25.23513104 16 13.51 +22 59 31.8          20.7 rWEU029I41
         K19W24F ZC2019 11 25.25750004 16 11.67 +23 01 23.3          21.1 rWEU029I41
         K19W24F ZC2019 11 25.25795404 16 11.66 +23 01 25.3          20.6 rWEU029I41
         K19W24F ZC2019 11 25.29507904 16 08.46 +23 04 22.9          20.9 rWEU029I41
         K19W24F ZC2019 11 25.32048404 16 06.14 +23 06 20.4          21.0 gWEU029I41
         K19W24F ZC2019 11 25.33091004 16 05.26 +23 07 07.0          21.3 gWEU029I41
         K19W24F* C2019 11 26.33534704 16 13.153+24 07 03.82         21.72wUEU029F51
         K19W24F  C2019 11 26.34758204 16 12.320+24 07 40.95         21.38wUEU029F51
         K19W24F  C2019 11 26.35976604 16 11.453+24 08 17.26         21.68wUEU029F51
         K19W24F  C2019 11 26.37196904 16 10.545+24 08 52.81         21.42wUEU029F51
         K19W24F #C2019 11 26.98855404 16 09.17 +24 33 30.0                WEU029J04
         K19W24F #C2019 11 26.98953504 16 09.12 +24 33 32.7                WEU029J04
         K19W24F #C2019 11 26.99051804 16 09.08 +24 33 34.8                WEU029J04
         K19W24F #C2019 11 26.99150504 16 09.05 +24 33 36.9                WEU029J04
         K19W24F #C2019 11 26.99248704 16 08.99 +24 33 38.9                WEU029J04
         K19W24F #C2019 11 26.99346904 16 08.93 +24 33 40.7                WEU029J04
         K19W24F #C2019 11 26.99445504 16 08.84 +24 33 43.5                WEU029J04
         K19W24F #C2019 11 26.99543904 16 08.78 +24 33 45.9                WEU029J04
         K19W24F #C2019 11 26.99642304 16 08.70 +24 33 48.6                WEU029J04
         K19W24F #C2019 11 26.99740604 16 08.66 +24 33 50.6                WEU029J04
    
    Observer details:
    F51 Pan-STARRS 1, Haleakala.  Observers J. Bulger, T. Lowe, A. Schultz, M.
        Willman.  Measurers K. Chambers, S. Chastel, T. de Boer, L. Denneau, J.
        Fairlamb, H. Flewelling, M. Huber, C.-C. Lin, E. Magnier, Y. Ramanjooloo,
        R. Wainscoat, R. Weryk.  1.8-m Ritchey-Chretien + CCD.
    I41 Palomar Mountain--ZTF.  Observer .  Measurer S. Deen.  1.2-m Oschin
        Schmidt + CCD.
    J04 ESA Optical Ground Station, Tenerife.  Observer .  Measurer S. Deen.
        1.0-m f/4.4 reflector + CCD.
    
    Orbital elements:
    2019 WF24                                                Earth MOID = 0.0030 AU
    Epoch 2022 Aug. 9.0 TT = JDT 2459800.5                  Veres                   
    M   6.41334              (2000.0)            P               Q                  
    n   0.35404660     Peri.  284.93545     +0.97063287     +0.23455981             
    a   1.9789239      Node    61.52356     -0.19068237     +0.88553989             
    e   0.6358099      Incl.    3.48407     -0.14666995     +0.40099975             
    P   2.78           H   27.75          G   0.15           U   9                  
    Residuals in seconds of arc
    191124 I41  0.3+  0.3-    191125 I41  0.0   0.1+    191126 J04  0.3-  0.1-
    191124 I41  0.4+  0.2+    191125 I41  0.3+  0.2-    191126 J04  0.0   0.2-
    191124 I41  0.5+  0.3+    191125 I41  0.5-  0.0     191126 J04  0.5+  0.4-
    191124 I41  0.1+  0.3-    191125 I41  0.2+  0.5-    191126 J04  0.5+  0.6-
    191124 I41  0.4+  0.4+    191126 F51  0.0   0.1-    191126 J04  0.6+  1.0-
    191124 I41  0.4+  0.1-    191126 F51  0.0   0.1+    191126 J04  0.2+  0.5-
    191124 I41  0.3+  0.8+    191126 F51  0.1+  0.1+    191126 J04  0.2+  0.3-
    191125 I41  0.1-  0.3-    191126 F51  0.0   0.1-    191126 J04  0.0   0.2+
    191125 I41  0.4-  0.3+    191126 J04  0.4-  0.6-    191126 J04  0.3+  0.0
    
    Ephemeris:
    2019 WF24                a,e,i = 1.98, 0.64, 3                   q = 0.7207
    Date    TT    R. A. (2000) Decl.     Delta      r    Elong.  Phase     V
    2022 09 18    08 06 54.5 +20 48 10   1.3380  1.1269    55.3    47.2    30.4
    ...
    2022 10 03    08 39 59.4 +19 36 40   1.3882  1.2777    62.2    43.9    30.7
    ...
    2022 10 11    08 54 47.3 +18 59 33   1.3987  1.3572    66.6    42.5    30.8
    ...
    2022 10 17    09 04 37.2 +18 34 02   1.3997  1.4159    70.1    41.5    30.9
    2022 10 18    09 06 09.1 +18 30 03   1.3993  1.4256    70.8    41.3    30.9
    2022 10 19    09 07 39.2 +18 26 09   1.3988  1.4353    71.4    41.1    30.9
    ...
    2022 10 25    09 16 00.7 +18 04 51   1.3925  1.4928    75.4    40.1    30.9
    ...
    2022 11 02    09 25 21.8 +17 43 11   1.3766  1.5679    81.1    38.7    31.0
    ...
    2022 11 17    09 37 00.2 +17 29 20   1.3288  1.7036    93.5    35.4    31.0
    
    M. P. C. Staff               (C) Copyright 2022 MPC           M.P.E.C. 2022-U29
    


    Read MPEC 2022-U28 Read MPEC 2022-U30


    MPEC number:

    Enter an MPEC number in one of the following forms:

    • 1997-B01 (the full form)
    • J97B01 (the packed version of the full form)
    • B01 (the abbreviated form)